McCook, NE

10:08 PM CDT on September 27, 2016 (GMT -0500)
McCook Municipal

Weather History for KMCK - February, 2014

Change the Weather History Date:

Monday, February 10, 2014

  Actual Average Record
Temperature  
Mean Temperature 11 °F 30 °F  
Max Temperature 15 °F 43 °F 79 °F (1999)
Min Temperature 7 °F 16 °F -17 °F (1933)
Degree Days  
Heating Degree Days 54    
Moisture  
Dew Point 7 °F    
Average Humidity 80    
Maximum Humidity 87    
Minimum Humidity 76    
Precipitation  
Precipitation T in 0.02 in 0.30 in (1978)
Month to date precipitation 0.03 0.19  
Year to date precipitation 0.23 0.70  
Sea Level Pressure  
Sea Level Pressure 30.39 in    
Wind  
Wind Speed 7 mph (SSE)    
Max Wind Speed 12 mph    
Max Gust Speed -    
Visibility 8 miles    
Events Snow    
T = Trace of Precipitation, MM = Missing Value Source: NWS Daily Summary

Daily Weather History Graph

Daily Weather History Graph

Search for Another Location

Airport or City:

Trip Planner

Search our weather history database for the weather conditions in past years. The results will help you decide how hot, cold, wet, or windy it might be!

Date:

Astronomy

Feb. 10, 2014 Rise Set
Actual Time 7:41 AM CST 6:12 PM CST
Civil Twilight 7:13 AM CST 6:40 PM CST
Nautical Twilight 6:41 AM CST 7:12 PM CST
Astronomical Twilight 6:09 AM CST 7:43 PM CST
Moon 2:42 PM CST (2/10) 4:36 AM CST (2/10)
Length of Visible Light 11h 26m
Length of Day
10h 30m
Waxing Gibbous, 85% of the Moon is Illuminated
Feb 10
Waxing Gibbous
Feb 14
Full
Feb 22
Last Quarter
Mar 1
New
Mar 8
First Quarter

Hourly Weather History & Observations

Time (CST) Temp. Windchill Dew Point Humidity Pressure Visibility Wind Dir Wind Speed Gust Speed Precip Events Conditions
12:53 AM 10.9 °F 4.7 °F 5.0 °F 77% 30.48 in 9.0 mi ESE 3.5 mph - N/A   Overcast
1:53 AM 10.9 °F 4.7 °F 6.1 °F 81% 30.48 in 10.0 mi SSE 3.5 mph - N/A   Overcast
2:53 AM 10.0 °F 1.8 °F 5.0 °F 80% 30.46 in 10.0 mi SE 4.6 mph - N/A   Overcast
3:53 AM 10.0 °F 1.8 °F 5.0 °F 80% 30.46 in 10.0 mi SSE 4.6 mph - N/A   Overcast
4:53 AM 8.1 °F -0.5 °F 3.0 °F 80% 30.46 in 10.0 mi SE 4.6 mph - N/A   Mostly Cloudy
5:53 AM 7.0 °F 0.1 °F 3.9 °F 87% 30.46 in 9.0 mi SSE 3.5 mph - N/A   Overcast
6:53 AM 8.1 °F -0.5 °F 5.0 °F 87% 30.46 in 9.0 mi South 4.6 mph - N/A   Overcast
7:53 AM 9.0 °F 0.6 °F 5.0 °F 84% 30.48 in 8.0 mi SSE 4.6 mph - N/A   Overcast
8:53 AM 9.0 °F -3.2 °F 5.0 °F 84% 30.48 in 9.0 mi SE 8.1 mph - N/A   Overcast
9:53 AM 10.0 °F -4.5 °F 3.9 °F 76% 30.44 in 9.0 mi SE 11.5 mph - N/A   Scattered Clouds
10:53 AM 10.9 °F -1.8 °F 5.0 °F 77% 30.45 in 10.0 mi SSE 9.2 mph - N/A   Clear
11:53 AM 12.0 °F -1.3 °F 6.1 °F 77% 30.43 in 10.0 mi SSE 10.4 mph - N/A   Overcast
12:25 PM 12.9 °F -0.9 °F 7.0 °F 77% 30.29 in 7.0 mi South 11.5 mph - N/A   Overcast
12:49 PM 12.2 °F -1.0 °F 6.8 °F 79% 30.28 in 4.0 mi South 10.4 mph - N/A   Haze
12:53 PM 12.9 °F -0.9 °F 7.0 °F 77% 30.43 in 5.0 mi South 11.5 mph - N/A   Haze
1:12 PM 12.9 °F -0.2 °F 8.1 °F 81% 30.27 in 2.5 mi South 10.4 mph - 0.00 in Snow Light Snow
1:18 PM 12.9 °F -0.2 °F 7.0 °F 77% 30.27 in 4.0 mi South 10.4 mph - 0.00 in   Haze
1:37 PM 12.9 °F 1.6 °F 8.1 °F 81% 30.27 in 3.0 mi South 8.1 mph - 0.00 in   Haze
1:53 PM 14.0 °F 1.2 °F 8.1 °F 77% 30.41 in 5.0 mi SSW 10.4 mph - 0.00 in   Haze
2:53 PM 14.0 °F 0.5 °F 8.1 °F 77% 30.39 in 5.0 mi SSE 11.5 mph - N/A   Haze
3:12 PM 14.0 °F 2.0 °F 8.1 °F 77% 30.24 in 7.0 mi SSE 9.2 mph - N/A   Overcast
3:53 PM 14.0 °F 0.5 °F 8.1 °F 77% 30.38 in 7.0 mi SSE 11.5 mph - N/A   Overcast
4:07 PM 14.0 °F 1.2 °F 8.1 °F 77% 30.24 in 5.0 mi SE 10.4 mph - N/A   Haze
4:41 PM 12.9 °F 2.6 °F 7.0 °F 77% 30.25 in 8.0 mi SE 6.9 mph - N/A   Mostly Cloudy
4:53 PM 14.0 °F 2.0 °F 8.1 °F 77% 30.40 in 9.0 mi SSE 9.2 mph - N/A   Scattered Clouds
5:53 PM 12.9 °F 0.7 °F 7.0 °F 77% 30.43 in 9.0 mi SE 9.2 mph - N/A   Partly Cloudy
6:53 PM 10.9 °F -0.8 °F 7.0 °F 84% 30.44 in 9.0 mi SE 8.1 mph - N/A   Overcast
7:38 PM 12.0 °F 0.5 °F 7.0 °F 80% 30.28 in 10.0 mi SE 8.1 mph - N/A   Overcast
7:53 PM 12.0 °F 0.5 °F 7.0 °F 80% 30.44 in 10.0 mi SE 8.1 mph - N/A   Overcast
8:53 PM 12.9 °F 1.6 °F 8.1 °F 81% 30.44 in 10.0 mi SSE 8.1 mph - N/A   Overcast
9:53 PM 12.9 °F 2.6 °F 8.1 °F 81% 30.44 in 10.0 mi SSE 6.9 mph - N/A   Overcast
10:53 PM 12.9 °F 5.2 °F 8.1 °F 81% 30.45 in 10.0 mi South 4.6 mph - N/A   Overcast
11:53 PM 14.0 °F 3.9 °F 9.0 °F 80% 30.42 in 10.0 mi South 6.9 mph - N/A   Overcast